Volver al catálogo

FENGYUN 1C DEB

ActivoSSO
NORAD 30086·DEBRIS·🇨🇳 China

Lanzado May 10, 1999 desde Taiyuan Satellite Launch Center

Loading…

Próximos Pases (próximas 24 horas)

TLE

ActualizadoSource: Space-Track

Época: Sep 14, 2026, 22:13 UTC

1 30086U 99025QP  26257.92606757  .00000179  00000-0  13767-3 0  9990
2 30086  98.8812 290.7523 0062315  84.0256  36.5508 14.04086250  5670

Sigue FENGYUN 1C DEB en tiempo real con AllMySat

Download on the App Store